This is the latest recevied weather packets stored in our database for station/object UR7D-12. If no packets are shown the sender has not sent any weather packets the latest 10 day(s).
| Time | Temp. | Humidity | Pressure | Rain* | Wind** | Luminosity | Snow |
|---|---|---|---|---|---|---|---|
| 1777554513 | 12.78° C | 31% | 997.8 hPa | 0 mm | - | - | - |
| 1777553912 | 13.33° C | 31% | 997.8 hPa | 0 mm | - | - | - |
| 1777553011 | 13.89° C | 28% | 997.9 hPa | 0 mm | - | - | - |
| 1777552411 | 13.33° C | 30% | 997.9 hPa | 0 mm | - | - | - |
| 1777552110 | 13.33° C | 28% | 998.1 hPa | 0 mm | - | - | - |
| 1777551810 | 13.33° C | 27% | 998.1 hPa | 0 mm | - | - | - |
| 1777551510 | 13.89° C | 27% | 998.1 hPa | 0 mm | - | - | - |
| 1777551210 | 13.89° C | 30% | 998.2 hPa | 0 mm | - | - | - |
| 1777548807 | 12.78° C | 31% | 998.5 hPa | 0 mm | - | - | - |
| 1777548507 | 12.78° C | 31% | 998.5 hPa | 0 mm | - | - | - |
| 1777548207 | 12.22° C | 34% | 998.4 hPa | 0 mm | - | - | - |
| 1777547906 | 11.67° C | 35% | 998.5 hPa | 0 mm | - | - | - |
| 1777547606 | 12.22° C | 32% | 998.6 hPa | 0 mm | - | - | - |
| 1777547306 | 12.78° C | 32% | 998.6 hPa | 0 mm | - | - | - |
| 1777547006 | 12.22° C | 32% | 998.5 hPa | 0 mm | - | - | - |
| 1777545504 | 12.22° C | 32% | 998.8 hPa | 0 mm | - | - | - |
| 1777545204 | 12.22° C | 31% | 998.9 hPa | 0 mm | - | - | - |
| 1777544904 | 12.22° C | 31% | 999 hPa | 0 mm | - | - | - |
| 1777544603 | 12.22° C | 33% | 998.9 hPa | 0 mm | - | - | - |
| 1777544305 | 11.67° C | 33% | 998.9 hPa | 0 mm | - | - | - |
| 1777543402 | 11.67° C | 34% | 999 hPa | 0 mm | - | - | - |
| 1777542802 | 11.67° C | 33% | 999.2 hPa | 0 mm | - | - | - |
| 1777542501 | 11.67° C | 38% | 999.1 hPa | 0 mm | - | - | - |
| 1777542201 | 11.11° C | 36% | 999.3 hPa | 0 mm | - | - | - |
| 1777541902 | 11.67° C | 33% | 999.1 hPa | 0 mm | - | - | - |
* Rain latest hour (hover to see other rain measurements)
** Current wind speed in m/s (hover to see current wind gust speed)